Location: Garbet
(42.8837°N, 1.2115°E)
Time: 05:41:46
(UTC+00:00)

Cosmos 1953 Rocket - Pass Details

Date: 19 March 2026
Orbit: 599 x 626 km, 82.5° (Epoch: 15 April)

Event Time Altitude Azimuth Distance (km) Brightness Sun altitude
Rises 18:51:04 0° 203° (SSW) 2,831 7.2 -9.0°
Reaches altitude 10° 18:53:21 10° 210° (SSW) 1,934 6.4 -9.4°
Maximum altitude 18:57:25 43° 282° (WNW) 844 4.9 -10.2°
Drops below altitude 10° 19:01:34 10° 355° (N) 1,958 6.3 -10.9°
Sets 19:03:53 0° 2° (N) 2,870 7.1 -11.3°
